When you browse on this site, cookies collect data to enhance your experience and personalize the content and advertising you see.
Visit our Privacy Policy to learn more. By continuing to use the site, you agree to this use of cookies and data.
  • In Österreich
  • Länderverzeichnis
  • Für 7 Tage
  • Wassertemperatur
  • Wetterkarte
  • News
  • Widgets
  • user-avatar
    Anmelden

    Stündliche Wetter Tezontepec de Aldama

    Heute, 18 Januar, Samstag

    Zeit Temperatur Niederschläge Wind Luftdruck Luftfeuchtigkeit
    00:00 +15°C° 0 mm 1 m/S 600 mmHg 85%
    01:00 +14°C° 0 mm 1 m/S 600 mmHg 88%
    02:00 +13°C° 0 mm 1 m/S 599 mmHg 90%
    03:00 +13°C° 0 mm 1 m/S 599 mmHg 91%
    04:00 +13°C° 0 mm 1 m/S 599 mmHg 91%
    05:00 +11°C° 0 mm 0 m/S 599 mmHg 92%
    06:00 +13°C° 0 mm 1 m/S 600 mmHg 90%
    07:00 +13°C° 0 mm 1 m/S 600 mmHg 87%
    08:00 +14°C° 0 mm 1 m/S 601 mmHg 85%
    09:00 +15°C° 0 mm 1 m/S 601 mmHg 76%
    10:00 +17°C° 0 mm 2 m/S 601 mmHg 68%
    11:00 +19°C° 0 mm 2 m/S 602 mmHg 60%
    12:00 +19°C° 0.1 mm 3 m/S 602 mmHg 55%
    13:00 +20°C° 0.1 mm 4 m/S 601 mmHg 51%
    14:00 +21°C° 0.1 mm 4 m/S 601 mmHg 46%
    15:00 +20°C° 0.1 mm 4 m/S 601 mmHg 52%
    16:00 +19°C° 0.1 mm 4 m/S 600 mmHg 58%
    17:00 +18°C° 0.1 mm 4 m/S 600 mmHg 64%
    18:00 +17°C° 0.3 mm 3 m/S 600 mmHg 70%
    19:00 +16°C° 0.3 mm 2 m/S 601 mmHg 75%
    20:00 +15°C° 0.3 mm 2 m/S 601 mmHg 81%
    21:00 +15°C° 0.1 mm 1 m/S 601 mmHg 83%
    22:00 +15°C° 0.1 mm 1 m/S 601 mmHg 84%
    23:00 +14°C° 0.1 mm 1 m/S 601 mmHg 86%

    Morgen, 19 Januar, Sonntag

    Zeit Temperatur Niederschläge Wind Luftdruck Luftfeuchtigkeit
    00:00 +14°C° 0 mm 1 m/S 600 mmHg 88%
    01:00 +13°C° 0 mm 1 m/S 600 mmHg 91%
    02:00 +13°C° 0 mm 1 m/S 600 mmHg 93%
    03:00 +13°C° 0 mm 1 m/S 600 mmHg 93%
    04:00 +13°C° 0 mm 1 m/S 600 mmHg 92%
    05:00 +13°C° 0 mm 1 m/S 600 mmHg 92%
    06:00 +13°C° 0.1 mm 1 m/S 601 mmHg 89%
    07:00 +14°C° 0.1 mm 1 m/S 601 mmHg 87%
    08:00 +14°C° 0.1 mm 1 m/S 602 mmHg 85%
    09:00 +15°C° 0.3 mm 2 m/S 602 mmHg 83%
    10:00 +15°C° 0.3 mm 2 m/S 602 mmHg 81%
    11:00 +14°C° 0.3 mm 3 m/S 602 mmHg 78%
    12:00 +14°C° 0.1 mm 3 m/S 602 mmHg 76%
    13:00 +14°C° 0.1 mm 4 m/S 601 mmHg 75%
    14:00 +15°C° 0.1 mm 4 m/S 601 mmHg 73%
    15:00 +14°C° 0 mm 4 m/S 601 mmHg 75%
    16:00 +14°C° 0 mm 4 m/S 601 mmHg 77%
    17:00 +13°C° 0 mm 3 m/S 601 mmHg 79%
    18:00 +13°C° 1.2 mm 3 m/S 601 mmHg 83%
    19:00 +13°C° 1.2 mm 2 m/S 602 mmHg 87%
    20:00 +13°C° 1.2 mm 1 m/S 602 mmHg 91%
    21:00 +13°C° 0.6 mm 1 m/S 602 mmHg 91%
    22:00 +13°C° 0.6 mm 1 m/S 602 mmHg 91%
    23:00 +13°C° 0.6 mm 1 m/S 602 mmHg 91%

    übermorgen, 20 Januar, Montag

    Zeit Temperatur Niederschläge Wind Luftdruck Luftfeuchtigkeit
    00:00 +12°C° 0 mm 1 m/S 602 mmHg 92%
    01:00 +12°C° 0 mm 1 m/S 602 mmHg 92%
    02:00 +12°C° 0 mm 1 m/S 601 mmHg 92%
    03:00 +12°C° 0 mm 1 m/S 601 mmHg 93%
    04:00 +12°C° 0 mm 1 m/S 601 mmHg 93%
    05:00 +11°C° 0 mm 1 m/S 601 mmHg 93%
    06:00 +12°C° 0 mm 1 m/S 602 mmHg 90%
    07:00 +12°C° 0 mm 1 m/S 602 mmHg 88%
    08:00 +13°C° 0 mm 1 m/S 603 mmHg 85%
    09:00 +14°C° 0 mm 2 m/S 603 mmHg 79%
    10:00 +14°C° 0 mm 2 m/S 603 mmHg 74%
    11:00 +15°C° 0 mm 2 m/S 604 mmHg 68%
    12:00 +16°C° 0 mm 2 m/S 603 mmHg 66%
    13:00 +17°C° 0 mm 3 m/S 603 mmHg 63%
    14:00 +17°C° 0 mm 3 m/S 602 mmHg 60%
    15:00 +17°C° 0 mm 4 m/S 602 mmHg 63%
    16:00 +15°C° 0 mm 4 m/S 602 mmHg 66%
    17:00 +14°C° 0 mm 4 m/S 601 mmHg 69%
    18:00 +13°C° 0 mm 3 m/S 601 mmHg 75%
    19:00 +12°C° 0 mm 3 m/S 601 mmHg 80%
    20:00 +12°C° 0 mm 2 m/S 601 mmHg 86%
    21:00 +12°C° 0 mm 2 m/S 601 mmHg 86%
    22:00 +12°C° 0 mm 2 m/S 601 mmHg 87%
    23:00 +12°C° 0 mm 2 m/S 602 mmHg 87%

    21 Januar, Dienstag

    Zeit Temperatur Niederschläge Wind Luftdruck Luftfeuchtigkeit
    00:00 +12°C° 0 mm 1 m/S 601 mmHg 86%
    01:00 +12°C° 0 mm 1 m/S 601 mmHg 86%
    02:00 +12°C° 0 mm 1 m/S 601 mmHg 85%
    03:00 +11°C° 0 mm 1 m/S 600 mmHg 88%
    04:00 +11°C° 0 mm 1 m/S 600 mmHg 90%
    05:00 +10°C° 0 mm 1 m/S 599 mmHg 93%
    06:00 +11°C° 0 mm 1 m/S 600 mmHg 87%
    07:00 +12°C° 0 mm 1 m/S 600 mmHg 82%
    08:00 +13°C° 0 mm 1 m/S 601 mmHg 77%
    09:00 +15°C° 0 mm 1 m/S 602 mmHg 69%
    10:00 +18°C° 0 mm 1 m/S 602 mmHg 60%
    11:00 +20°C° 0 mm 1 m/S 603 mmHg 52%
    12:00 +20°C° 0 mm 1 m/S 602 mmHg 49%
    13:00 +21°C° 0 mm 1 m/S 601 mmHg 47%
    14:00 +22°C° 0 mm 1 m/S 601 mmHg 44%
    15:00 +20°C° 0 mm 2 m/S 600 mmHg 50%
    16:00 +19°C° 0 mm 2 m/S 600 mmHg 57%
    17:00 +18°C° 0 mm 2 m/S 599 mmHg 63%
    18:00 +17°C° 0.1 mm 2 m/S 599 mmHg 68%
    19:00 +16°C° 0.1 mm 1 m/S 599 mmHg 73%
    20:00 +15°C° 0.1 mm 1 m/S 599 mmHg 78%
    21:00 +14°C° 0 mm 1 m/S 599 mmHg 79%
    22:00 +14°C° 0 mm 1 m/S 599 mmHg 81%
    23:00 +13°C° 0 mm 1 m/S 598 mmHg 83%

    22 Januar, Mittwoch

    Zeit Temperatur Niederschläge Wind Luftdruck Luftfeuchtigkeit
    00:00 +13°C° 0 mm 1 m/S 598 mmHg 82%
    01:00 +13°C° 0 mm 1 m/S 598 mmHg 82%
    02:00 +13°C° 0 mm 1 m/S 597 mmHg 81%
    03:00 +12°C° 0 mm 1 m/S 597 mmHg 81%
    04:00 +12°C° 0 mm 1 m/S 597 mmHg 81%
    05:00 +12°C° 0 mm 1 m/S 597 mmHg 81%
    06:00 +13°C° 0 mm 1 m/S 597 mmHg 76%
    07:00 +14°C° 0 mm 1 m/S 598 mmHg 70%
    08:00 +15°C° 0 mm 1 m/S 599 mmHg 64%
    09:00 +17°C° 0 mm 2 m/S 599 mmHg 55%
    10:00 +19°C° 0 mm 3 m/S 600 mmHg 45%
    11:00 +21°C° 0 mm 4 m/S 600 mmHg 35%
    12:00 +22°C° 0 mm 5 m/S 600 mmHg 32%
    13:00 +22°C° 0 mm 6 m/S 599 mmHg 28%
    14:00 +23°C° 0 mm 6 m/S 599 mmHg 25%
    15:00 +22°C° 0 mm 6 m/S 599 mmHg 28%
    16:00 +21°C° 0 mm 6 m/S 598 mmHg 32%
    17:00 +19°C° 0 mm 6 m/S 598 mmHg 36%
    18:00 +17°C° 0 mm 5 m/S 598 mmHg 40%
    19:00 +17°C° 0 mm 4 m/S 598 mmHg 44%
    20:00 +17°C° 0 mm 2 m/S 598 mmHg 48%
    21:00 +16°C° 0 mm 2 m/S 598 mmHg 50%
    22:00 +16°C° 0 mm 1 m/S 598 mmHg 52%
    23:00 +16°C° 0 mm 1 m/S 598 mmHg 54%

    23 Januar, Donnerstag

    Zeit Temperatur Niederschläge Wind Luftdruck Luftfeuchtigkeit
    00:00 +15°C° 0 mm 1 m/S 598 mmHg 56%
    01:00 +15°C° 0 mm 1 m/S 597 mmHg 57%
    02:00 +15°C° 0 mm 1 m/S 596 mmHg 59%
    03:00 +14°C° 0 mm 1 m/S 596 mmHg 59%
    04:00 +14°C° 0 mm 1 m/S 596 mmHg 58%
    05:00 +14°C° 0 mm 1 m/S 596 mmHg 58%
    06:00 +14°C° 0 mm 1 m/S 597 mmHg 55%
    07:00 +15°C° 0 mm 2 m/S 597 mmHg 51%
    08:00 +15°C° 0 mm 2 m/S 598 mmHg 47%
    09:00 +17°C° 0 mm 3 m/S 598 mmHg 41%
    10:00 +19°C° 0 mm 3 m/S 599 mmHg 36%
    11:00 +21°C° 0 mm 4 m/S 599 mmHg 30%
    12:00 +21°C° 0 mm 5 m/S 599 mmHg 28%
    13:00 +22°C° 0 mm 5 m/S 598 mmHg 26%
    14:00 +23°C° 0 mm 6 m/S 598 mmHg 25%
    15:00 +22°C° 0 mm 6 m/S 598 mmHg 28%
    16:00 +21°C° 0 mm 5 m/S 597 mmHg 31%
    17:00 +20°C° 0 mm 5 m/S 597 mmHg 34%
    18:00 +18°C° 0 mm 4 m/S 597 mmHg 40%
    19:00 +17°C° 0 mm 3 m/S 597 mmHg 45%
    20:00 +15°C° 0 mm 2 m/S 597 mmHg 51%
    21:00 +15°C° 0 mm 2 m/S 597 mmHg 54%
    22:00 +14°C° 0 mm 2 m/S 597 mmHg 57%
    23:00 +13°C° 0 mm 1 m/S 597 mmHg 61%
    Mehr zeigen